KLM724 SAEZ-EHAM

Flight info

Callsign KLM724
Flight time N/A
Altitude 31000
Route PTA6A DORVO UN857 ITBEB UM540 ANISE UZ23 ILPIR UZ72 EDNES UN866 TENPA N866 KONBA DCT BEXAL DCT PINEK DCT LOTEE DCT AZFIC DCT ERIGA DCT GODIX DCT PODEM DCT ADUTO N873 FERDI Y18 DENUT DENUT3A
Aircraft B77W/H-SDE1E2E3FGHIJ2J3J4J5M1RWXY/LB1D1

Departure

Time N/A
Airport Ezeiza International Airport - Ministro Pistarini (SAEZ)

Arrival

Time 2026-04-27 06:44
Airport Amsterdam Airport Schiphol (EHAM)
Time Latitude Longitude Altitude Speed Heading
2026-04-27 06:09 49.64764 2.09649 37258 ft 504 kts 40°
2026-04-27 06:09 49.67346 2.13321 37255 ft 504 kts 40°
2026-04-27 06:09 49.72466 2.20622 37257 ft 504 kts 40°
2026-04-27 06:10 49.77621 2.27995 37252 ft 504 kts 40°
2026-04-27 06:10 49.82762 2.35371 37246 ft 503 kts 40°
2026-04-27 06:11 49.87890 2.42749 37248 ft 503 kts 40°
2026-04-27 06:11 49.92149 2.48895 37250 ft 502 kts 40°
2026-04-27 06:12 49.97264 2.56297 37274 ft 502 kts 40°
2026-04-27 06:12 50.02378 2.63718 37266 ft 502 kts 40°
2026-04-27 06:13 50.07476 2.71140 37269 ft 502 kts 40°
2026-04-27 06:13 50.12573 2.78583 37264 ft 502 kts 40°
2026-04-27 06:14 50.17662 2.86038 37278 ft 502 kts 40°
2026-04-27 06:14 50.22718 2.93467 37264 ft 502 kts 40°
2026-04-27 06:15 50.27802 3.00960 37267 ft 502 kts 40°
2026-04-27 06:15 50.32876 3.08461 37265 ft 502 kts 41°
2026-04-27 06:16 50.37946 3.15981 37279 ft 502 kts 41°
2026-04-27 06:16 50.43015 3.23521 37266 ft 502 kts 41°
2026-04-27 06:17 50.48094 3.31049 37265 ft 501 kts 38°
2026-04-27 06:17 50.53671 3.37360 37271 ft 495 kts 27°
2026-04-27 06:18 50.59811 3.42103 37283 ft 490 kts 19°
2026-04-27 06:18 50.66095 3.46298 37178 ft 491 kts 19°
2026-04-27 06:19 50.69283 3.48441 36063 ft 502 kts 19°
2026-04-27 06:19 50.72488 3.50631 35237 ft 502 kts 19°
2026-04-27 06:19 50.75697 3.52848 34355 ft 504 kts 19°
2026-04-27 06:19 50.78906 3.55076 33365 ft 505 kts 20°
2026-04-27 06:20 50.82111 3.57305 32680 ft 500 kts 20°
2026-04-27 06:20 50.85275 3.59506 32050 ft 494 kts 20°
2026-04-27 06:20 50.88442 3.61520 31411 ft 486 kts 14°
2026-04-27 06:20 50.91671 3.62939 30791 ft 478 kts
2026-04-27 06:21 50.94934 3.63887 30158 ft 472 kts
2026-04-27 06:21 50.98159 3.64309 29433 ft 456 kts 358°
2026-04-27 06:21 51.01262 3.64484 28724 ft 437 kts 357°
2026-04-27 06:21 51.04246 3.64629 28022 ft 421 kts 357°
2026-04-27 06:22 51.07096 3.64775 27375 ft 412 kts 357°
2026-04-27 06:22 51.09982 3.64931 26772 ft 418 kts 358°
2026-04-27 06:22 51.12937 3.65106 26198 ft 419 kts 358°
2026-04-27 06:22 51.15839 3.65292 25713 ft 416 kts 358°
2026-04-27 06:23 51.18684 3.65479 25235 ft 412 kts 358°
2026-04-27 06:23 51.21543 3.65667 24764 ft 409 kts 358°
2026-04-27 06:23 51.24375 3.65836 24285 ft 405 kts 357°
2026-04-27 06:23 51.27182 3.65834 23827 ft 401 kts 355°
2026-04-27 06:24 51.29966 3.65729 23295 ft 397 kts 354°
2026-04-27 06:24 51.32663 3.65607 22714 ft 378 kts 354°
2026-04-27 06:24 51.35240 3.65497 22159 ft 362 kts 354°
2026-04-27 06:24 51.37712 3.65401 21623 ft 348 kts 354°
2026-04-27 06:25 51.40101 3.65314 21109 ft 339 kts 354°
2026-04-27 06:25 51.42435 3.65233 20698 ft 330 kts 354°
2026-04-27 06:25 51.44721 3.65155 20325 ft 329 kts 354°
2026-04-27 06:25 51.47027 3.65075 19984 ft 333 kts 354°
2026-04-27 06:26 51.49357 3.64996 19639 ft 336 kts 354°
2026-04-27 06:26 51.51692 3.64921 19287 ft 335 kts 354°
2026-04-27 06:26 51.53985 3.64850 18950 ft 333 kts 354°
2026-04-27 06:26 51.56291 3.64778 18595 ft 330 kts 354°
2026-04-27 06:27 51.58583 3.64706 18197 ft 328 kts 354°
2026-04-27 06:27 51.60857 3.64634 17796 ft 326 kts 354°
2026-04-27 06:27 51.63119 3.64562 17396 ft 324 kts 354°
2026-04-27 06:27 51.65371 3.64491 17010 ft 322 kts 355°
2026-04-27 06:28 51.67604 3.64420 16626 ft 320 kts 355°
2026-04-27 06:28 51.69817 3.64439 16220 ft 317 kts
2026-04-27 06:28 51.71912 3.65598 15822 ft 324 kts 28°
2026-04-27 06:28 51.73596 3.68018 15459 ft 327 kts 50°
2026-04-27 06:29 51.74851 3.71052 15094 ft 325 kts 55°
2026-04-27 06:29 51.76051 3.74144 14774 ft 323 kts 56°
2026-04-27 06:29 51.77219 3.77181 14420 ft 322 kts 56°
2026-04-27 06:29 51.78403 3.80249 14058 ft 321 kts 56°
2026-04-27 06:30 51.79587 3.83300 13660 ft 320 kts 56°
2026-04-27 06:30 51.80772 3.86342 13255 ft 319 kts 56°
2026-04-27 06:30 51.81956 3.89374 12879 ft 318 kts 56°
2026-04-27 06:30 51.83137 3.92394 12502 ft 317 kts 56°
2026-04-27 06:31 51.84312 3.95396 12133 ft 316 kts 56°
2026-04-27 06:31 51.85476 3.98373 11876 ft 302 kts 56°
2026-04-27 06:31 51.86553 4.01137 11771 ft 282 kts 56°
2026-04-27 06:31 51.87585 4.03778 11483 ft 271 kts 56°
2026-04-27 06:32 51.88574 4.06315 11195 ft 263 kts 56°
2026-04-27 06:32 51.89547 4.08812 10900 ft 262 kts 56°
2026-04-27 06:32 51.90518 4.11306 10613 ft 262 kts 56°
2026-04-27 06:32 51.91426 4.13865 10321 ft 262 kts 66°
2026-04-27 06:33 51.91978 4.16679 10020 ft 262 kts 74°
2026-04-27 06:33 51.92405 4.19547 9708 ft 262 kts 76°
2026-04-27 06:33 51.92817 4.22427 9451 ft 263 kts 76°
2026-04-27 06:33 51.93236 4.25319 9226 ft 264 kts 76°
2026-04-27 06:34 51.93663 4.28203 9013 ft 262 kts 75°
2026-04-27 06:34 51.94086 4.31023 8818 ft 260 kts 76°
2026-04-27 06:34 51.94525 4.33909 8605 ft 264 kts 75°
2026-04-27 06:34 51.94964 4.36781 8341 ft 260 kts 75°
2026-04-27 06:35 51.95395 4.39590 8044 ft 253 kts 75°
2026-04-27 06:35 51.95818 4.42340 7718 ft 249 kts 76°
2026-04-27 06:35 51.96235 4.45054 7467 ft 247 kts 75°
2026-04-27 06:35 51.96652 4.47765 7219 ft 248 kts 75°
2026-04-27 06:36 51.97071 4.50489 6981 ft 249 kts 75°
2026-04-27 06:36 51.97487 4.53196 6777 ft 247 kts 75°
2026-04-27 06:36 51.97895 4.55857 6547 ft 246 kts 75°
2026-04-27 06:36 51.98306 4.58540 6321 ft 246 kts 75°
2026-04-27 06:37 51.98715 4.61210 6090 ft 245 kts 75°
2026-04-27 06:37 51.99120 4.63863 5893 ft 241 kts 75°
2026-04-27 06:37 51.99521 4.66495 5635 ft 239 kts 75°
2026-04-27 06:37 51.99918 4.69104 5375 ft 235 kts 75°
2026-04-27 06:38 52.00314 4.71678 5124 ft 233 kts 72°
2026-04-27 06:38 52.01117 4.73907 4838 ft 232 kts 41°
2026-04-27 06:38 52.02548 4.75054 4625 ft 232 kts 13°
2026-04-27 06:38 52.04143 4.75427 4421 ft 233 kts
2026-04-27 06:39 52.05752 4.75627 4232 ft 233 kts
2026-04-27 06:39 52.07358 4.75775 4160 ft 228 kts
2026-04-27 06:39 52.08897 4.75910 4001 ft 222 kts
2026-04-27 06:39 52.10419 4.76045 3715 ft 215 kts
2026-04-27 06:40 52.11892 4.76177 3428 ft 209 kts
2026-04-27 06:40 52.13323 4.76307 3145 ft 203 kts
2026-04-27 06:40 52.14711 4.76432 2866 ft 196 kts
2026-04-27 06:40 52.16032 4.76552 2608 ft 183 kts
2026-04-27 06:41 52.17249 4.76660 2397 ft 167 kts
2026-04-27 06:41 52.18369 4.76762 2163 ft 155 kts
2026-04-27 06:41 52.19445 4.76861 1959 ft 155 kts
2026-04-27 06:41 52.20534 4.76959 1752 ft 159 kts
2026-04-27 06:42 52.21635 4.77061 1510 ft 154 kts
2026-04-27 06:42 52.22661 4.77152 1287 ft 142 kts
2026-04-27 06:42 52.23627 4.77241 1111 ft 139 kts
2026-04-27 06:42 52.24594 4.77329 922 ft 139 kts
2026-04-27 06:43 52.25553 4.77416 715 ft 139 kts
2026-04-27 06:43 52.26510 4.77480 499 ft 137 kts
2026-04-27 06:43 52.27453 4.77583 333 ft 134 kts
2026-04-27 06:43 52.28374 4.77659 158 ft 133 kts
2026-04-27 06:44 52.29309 4.77744 15 ft 136 kts
2026-04-27 06:44 52.30163 4.77835 4 ft 104 kts
2026-04-27 06:44 52.30736 4.77888 -1 ft 58 kts
2026-04-27 06:44 52.30935 4.77826 -2 ft 27 kts 333°
2026-04-27 06:45 52.31048 4.77732 2 ft 12 kts 332°
2026-04-27 06:45 52.31121 4.77670 2 ft 12 kts 332°
2026-04-27 06:45 52.31202 4.77640 2 ft 12 kts 359°
2026-04-27 06:45 52.31310 4.77647 2 ft 19 kts
2026-04-27 06:46 52.31458 4.77625 2 ft 23 kts 334°
2026-04-27 06:46 52.31556 4.77472 2 ft 21 kts 302°
2026-04-27 06:46 52.31572 4.77233 2 ft 23 kts 265°
2026-04-27 06:46 52.31562 4.76976 2 ft 19 kts 267°
2026-04-27 06:47 52.31553 4.76750 2 ft 19 kts 258°
2026-04-27 06:47 52.31457 4.76649 2 ft 17 kts 208°
2026-04-27 06:47 52.31350 4.76539 2 ft 20 kts 212°
2026-04-27 06:47 52.31282 4.76470 2 ft 2 kts 212°
2026-04-27 06:48 52.31258 4.76460 2 ft 5 kts 173°
2026-04-27 06:48 52.31229 4.76508 2 ft 7 kts 126°
2026-04-27 06:48 52.31213 4.76546 2 ft 0 kts 123°
2026-04-27 06:48 52.31210 4.76551 2 ft 0 kts 124°